星链-6223 (STARLINK-6223 )

导读

STARLINK-6223是美国SpaceX公司星链(Starlink)卫星互联网星座的一员,于2023年6月22日发射升空。作为星链低轨卫星组网的组成部分,它被部署在近地轨道,和数千颗同系列卫星共同为全球偏远地区提供低延迟高速宽带互联网服务,助力实现全球网络覆盖,目前星链已经在全球60多个国家开通商用服务。

基本信息
目录编号:
57057
目录名称:
STARLINK-6223
国际标识:
2023-088K
轨道中心:
EARTH
卫星名称:
星链-6223
卫星全名:
星链-6223 (STARLINK-6223 )
卫星状态:
在轨 (已飞行1088 天)
发射日期:
2023-06-22 UTC
国别 :
美国 (US)
星等 :
--
轨道信息
数据来源 国际轨道数据
星历时间: 2026-06-14T09:26:21+0800
19小时前
查看轨道信息
半长轴: 6861.202km
偏心率: 0.0001359
轨道倾角: 43.004°
近地点辐角 270.932°
升交点赤经 286.165°
平近点角 89.138°
近地点: 482.132km
远地点: 483.998km
周期: 94.267分钟
每日圈数: 15.27575
详细信息
固有亮度:
5
最大亮度:
2.4
卫星平台:
Starlink v1.5
覆盖范围:
全球
运营商:
太空探索技术公司
运营商所在国:
美国
制造商(研发单位):
太空探索技术公司
制造商所在国:
美国
使用方式:
暂无
卫星简介
星链(Starlink)计划是由太空探索技术公司(SpaceX)提出的一个巨型低轨卫星互联网星座项目,计划在2019年至2024年间在太空搭建由约1.2万颗卫星组成的“星链”网络,其中1584颗将部署在地球上空550千米处的近地轨道,并从2020年开始工作。该卫星仍在工作。
2D轨道图
3D轨道图
轨道高度分析图
轨道倾角分析图
轨道综合分析图
查看轨道综合分析图